TimeCET,TemperatureF,Dew PointF,Humidity,Sea Level PressureIn,VisibilityMPH,Wind Direction,Wind SpeedMPH,Gust SpeedMPH,PrecipitationIn,Events,Conditions,WindDirDegrees,DateUTC
12:00 AM,41.0,39.2,93,30.01,-9999.0,Variable,1.2,-,N/A,,Clear,0,2012-11-18 23:00:00
12:30 AM,41.0,39.2,93,30.01,-9999.0,Calm,Calm,-,N/A,,Clear,0,2012-11-18 23:30:00
1:00 AM,39.2,37.4,93,30.01,-9999.0,Calm,Calm,-,N/A,,Clear,0,2012-11-19 00:00:00
1:30 AM,41.0,39.2,93,30.01,-9999.0,SE,3.5,-,N/A,,Clear,130,2012-11-19 00:30:00
1:52 AM,41.0,39.2,93,29.98,4.3,SE,4.6,-,N/A,Fog,Patches of Fog,130,2012-11-19 00:52:00
2:00 AM,41.0,39.2,93,29.98,4.3,SE,4.6,-,N/A,Fog,Patches of Fog,130,2012-11-19 01:00:00
2:30 AM,41.0,41.0,100,29.98,3.1,SSE,4.6,-,N/A,Fog,Patches of Fog,150,2012-11-19 01:30:00
3:00 AM,41.0,41.0,100,29.98,2.8,Variable,2.3,-,N/A,Fog,Patches of Fog,0,2012-11-19 02:00:00
3:30 AM,41.0,41.0,100,29.98,3.7,SE,4.6,-,N/A,Fog,Partly Cloudy,130,2012-11-19 02:30:00
4:00 AM,41.0,41.0,100,29.98,5.0,South,6.9,-,N/A,Fog,Partly Cloudy,170,2012-11-19 03:00:00
4:30 AM,41.0,41.0,100,29.98,5.0,SSE,4.6,-,N/A,Fog,Partly Cloudy,160,2012-11-19 03:30:00
5:00 AM,42.8,42.8,100,29.98,5.0,SE,5.8,-,N/A,Fog,Partly Cloudy,140,2012-11-19 04:00:00
5:30 AM,42.8,42.8,100,29.98,5.0,SE,4.6,-,N/A,Fog,Partly Cloudy,130,2012-11-19 04:30:00
6:00 AM,41.0,41.0,100,29.98,5.0,SSE,4.6,-,N/A,Fog,Fog,150,2012-11-19 05:00:00
6:30 AM,41.0,41.0,100,29.98,5.6,SSE,3.5,-,N/A,Fog,Partly Cloudy,150,2012-11-19 05:30:00
7:00 AM,41.0,41.0,100,29.95,5.6,ESE,6.9,-,N/A,Fog,Partly Cloudy,120,2012-11-19 06:00:00
7:30 AM,42.8,42.8,100,29.98,5.6,SE,4.6,-,N/A,Fog,Partly Cloudy,130,2012-11-19 06:30:00
8:00 AM,42.8,42.8,100,29.98,5.6,SE,3.5,-,N/A,Fog,Mostly Cloudy,140,2012-11-19 07:00:00
9:00 AM,44.6,42.8,93,29.98,6.2,SE,4.6,-,N/A,,Mostly Cloudy,140,2012-11-19 08:00:00
9:30 AM,46.4,42.8,87,29.98,6.2,Variable,2.3,-,N/A,,Mostly Cloudy,0,2012-11-19 08:30:00
10:30 AM,46.4,44.6,93,29.98,6.2,ESE,4.6,-,N/A,,Mostly Cloudy,120,2012-11-19 09:30:00
11:00 AM,48.2,44.6,87,29.98,6.2,SE,4.6,-,N/A,,Mostly Cloudy,130,2012-11-19 10:00:00
11:30 AM,50.0,46.4,87,29.98,6.2,SSE,4.6,-,N/A,,Mostly Cloudy,150,2012-11-19 10:30:00
12:00 PM,51.8,46.4,82,30.01,6.2,South,9.2,-,N/A,,Mostly Cloudy,190,2012-11-19 11:00:00
12:30 PM,51.8,46.4,82,29.98,6.2,South,10.4,-,N/A,,Mostly Cloudy,180,2012-11-19 11:30:00
1:00 PM,53.6,48.2,82,29.98,6.2,SSW,9.2,-,N/A,,Mostly Cloudy,200,2012-11-19 12:00:00
1:30 PM,55.4,48.2,77,29.98,6.2,South,12.7,-,N/A,,Mostly Cloudy,190,2012-11-19 12:30:00
2:00 PM,55.4,48.2,77,29.98,6.2,South,11.5,-,N/A,,Mostly Cloudy,190,2012-11-19 13:00:00
2:30 PM,55.4,48.2,77,29.98,6.2,South,9.2,-,N/A,,Mostly Cloudy,190,2012-11-19 13:30:00
3:00 PM,55.4,48.2,77,29.98,6.2,SSW,11.5,-,N/A,,Mostly Cloudy,200,2012-11-19 14:00:00
3:30 PM,55.4,48.2,77,29.95,6.2,SSW,9.2,-,N/A,,Mostly Cloudy,200,2012-11-19 14:30:00
4:00 PM,55.4,48.2,77,29.95,6.2,SSW,11.5,23.0,N/A,,Mostly Cloudy,200,2012-11-19 15:00:00
4:30 PM,55.4,48.2,77,29.95,6.2,South,11.5,-,N/A,,Mostly Cloudy,190,2012-11-19 15:30:00
5:00 PM,55.4,48.2,77,29.95,6.2,SSW,10.4,21.9,N/A,,Mostly Cloudy,200,2012-11-19 16:00:00
5:30 PM,55.4,48.2,77,29.95,6.2,SSW,10.4,-,N/A,,Mostly Cloudy,200,2012-11-19 16:30:00
6:00 PM,53.6,48.2,82,29.95,6.2,SSW,11.5,-,N/A,,Mostly Cloudy,200,2012-11-19 17:00:00
6:30 PM,53.6,48.2,82,29.95,6.2,South,12.7,-,N/A,,Mostly Cloudy,190,2012-11-19 17:30:00
7:00 PM,53.6,48.2,82,29.95,6.2,South,12.7,-,N/A,,Mostly Cloudy,180,2012-11-19 18:00:00
7:30 PM,53.6,48.2,82,29.95,6.2,South,10.4,-,N/A,,Mostly Cloudy,170,2012-11-19 18:30:00
8:00 PM,53.6,48.2,82,29.95,6.2,South,11.5,-,N/A,,Mostly Cloudy,180,2012-11-19 19:00:00
8:30 PM,53.6,48.2,82,29.95,6.2,South,13.8,-,N/A,,Mostly Cloudy,180,2012-11-19 19:30:00
9:00 PM,53.6,48.2,82,29.95,6.2,South,11.5,-,N/A,,Mostly Cloudy,180,2012-11-19 20:00:00
9:30 PM,53.6,48.2,82,29.95,6.2,South,12.7,-,N/A,,Mostly Cloudy,190,2012-11-19 20:30:00
10:00 PM,53.6,50.0,88,29.95,6.2,South,11.5,-,N/A,Rain,Light Rain,190,2012-11-19 21:00:00
10:30 PM,53.6,50.0,88,29.95,6.2,South,15.0,-,N/A,,Mostly Cloudy,180,2012-11-19 21:30:00
11:00 PM,53.6,48.2,82,29.95,6.2,South,12.7,-,N/A,,Mostly Cloudy,190,2012-11-19 22:00:00
11:30 PM,53.6,48.2,82,29.95,6.2,SSW,12.7,-,N/A,,Mostly Cloudy,200,2012-11-19 22:30:00